Home > Time Zones > World Clock > Weather > Japan > Tokyo > Past weeks

Flag for Japan Weather past 2 weeks in Tokyo, Japan

Now
82 °F

Warm.


Feels Like: 87 °F
Forecast: 74 / 80 °F
Wind: 8 mph from Southwest

Location: Tokyo

Current Time: Sep 2, 2015 at 8:33:03 PM

Latest Report: Sep 2, 2015 at 7:00 PM


Visibility: N/A

Pressure: 29.80 "Hg

Humidity: 72%

Dew point: 72 °F

Location of TokyoLocation

Historic Weather in Tokyo — Graph

°F

Tokyo temperature yesterday

Maximum temperature yesterday: 79 °F (at 2:00 PM)
Minimum temperature yesterday: 71 °F (at 1:00 AM)
Average temperature yesterday: 75 °F

Past Weeks' High & Low Weather Summary

 TemperatureHumidityPressure
High90 °F (Aug 22, 2:00 PM)100% (Aug 21, 6:00 PM)30.02 "Hg (Aug 21, 6:00 PM)
Low64 °F (Aug 26, 8:00 AM)54% (Aug 19, 1:00 PM)29.50 "Hg (Aug 22, 3:00 PM)
Average75 °F85%29.82 "Hg
* Reported Aug 18 7:00 PM — Sep 2 7:00 PM, Tokyo, Weather by CustomWeather, © 2015

Note: Actual official high and low records may vary slightly from our data, if they occured in-between our weather recording intervals... More about our weather records

Advertising

Tokyo weather history for previous 24 hours

 ConditionsComfort  
Time TempWeatherWind HumidityBarometerVisibility
7:00 PM
Wed, Sep 2
82 °FWarm.8 mph72%29.80 "HgN/A
6:00 PM84 °FPassing clouds.10 mph65%29.79 "Hg12 mi
5:00 PM86 °FWarm.13 mph64%29.77 "HgN/A
4:00 PM87 °FWarm.12 mph66%29.77 "HgN/A
3:00 PM88 °FScattered clouds.15 mph63%29.76 "Hg9 mi
2:00 PM88 °FWarm.16 mph66%29.76 "HgN/A
12:00 PM83 °FOvercast.14 mph80%29.80 "Hg9 mi
11:00 AM77 °FWarm.14 mph96%29.83 "HgN/A
10:00 AM77 °FWarm.16 mph97%29.85 "HgN/A
9:00 AM77 °FOvercast.14 mph95%29.86 "Hg9 mi
8:00 AM76 °FMild.16 mph96%29.85 "HgN/A
7:00 AM78 °FWarm.13 mph98%29.87 "HgN/A
6:00 AM79 °FSprinkles. Overcast.13 mph92%29.85 "Hg6 mi
5:00 AM78 °FWarm.13 mph94%29.84 "HgN/A
4:00 AM78 °FWarm.12 mph95%29.85 "HgN/A
3:00 AM78 °FSprinkles. Overcast.12 mph97%29.85 "Hg6 mi
2:00 AM77 °FWarm.8 mph99%29.86 "HgN/A
1:00 AM76 °FMild.10 mph97%29.87 "HgN/A
12:00 AM77 °FMild.9 mph99%29.88 "HgN/A
11:00 PM
Tue, Sep 1
77 °FMild.12 mph100%29.89 "HgN/A
10:00 PM76 °FMild.10 mph100%29.90 "HgN/A
9:00 PM76 °FOvercast.7 mph100%29.93 "Hg6 mi
8:00 PM76 °FMild.7 mph100%29.94 "HgN/A
Weather by CustomWeather, © 2015

See weather overviewHow to use our weather pages